Location: Tierra del Sol
(32.6128°N, 116.3319°W)
Time: 21:04:10
(UTC-07:00)

Hubble Space Telescope - Pass Details

Date: 13 October 2017
Orbit: 537 x 541 km, 28.5° (Epoch: 17 October)

Event Time Altitude Azimuth Distance (km) Brightness Sun altitude
Exits shadow 04:51:01 11° 165° (SSE) 1,737 3.4 -25.4°
Drops below altitude 10° 04:51:09 10° 164° (SSE) 1,768 3.5 -25.4°
Sets 04:54:09 0° 142° (SE) 2,672 4.7 -24.7°
